TIME,DELAY(SENSOR),PRES,OXYGEN,RAWTEMP,T(OPTODE),TCPHASE,FLUOR,BETA(BETA700),BETA(BETA412),BETA(BETA440),CDOM,C(CSC),ED(ED412.20),ED(ED444.00),ED(ED489.60),ED(ED554.30),LU(LU412.10),LU(LU443.90),LU(LU489.70),LU(LU554.70),COMP,TILTX,TILTY,CHECK
1370145585,5810,875.8099975585938000,31.5778808593750000,560.6895751953125000,4.4645209312438965,56.8374290466308600,54,99,100,77,81,15621,0,0,0,0,2147123282,2147768685,2147568676,2147569243,1073,2,13,28022
1370149181,5811,948.0300292968750000,35.7892112731933600,568.5772094726562000,4.2197670936584470,56.2461509704589840,55,99,100,78,81,15619,0,0,0,0,2147122038,2147770267,2147570998,2147566573,1861,2,13,26921
1370152781,5811,958.9099731445312000,36.7913513183593750,569.7249755859375000,4.1841049194335940,56.0976905822753900,54,97,99,78,80,15616,0,0,0,0,2147122029,2147771739,2147574162,2147565952,55,3,13,10107
1370156381,5810,988.1500244140625000,38.8027801513671900,572.9379882812500000,4.0842251777648930,55.8236503601074200,54,96,100,78,82,15616,0,0,0,0,2147124900,2147770477,2147569718,2147564452,3473,3,13,16068
1370159981,5810,995.5599975585938000,39.0033988952636700,574.1029052734375000,4.0479888916015625,55.8095817565918000,55,98,100,77,80,15618,0,0,0,0,2147125092,2147769234,2147571821,2147566217,127,3,13,6536
1370163581,5809,996.0000000000000000,39.1708602905273440,573.7794799804688000,4.0580477714538570,55.7775688171386700,55,97,99,78,80,15619,0,0,0,0,2147122313,2147772251,2147572928,2147565586,3584,3,13,36436
1370167181,5809,999.4400024414062000,36.7410202026367200,573.1857299804688000,4.0765209197998050,56.1446990966796900,54,99,100,77,81,15616,0,0,0,0,2147123602,2147765705,2147573613,2147567606,511,2,13,17058
1370170781,5807,996.8099975585938000,38.6628494262695300,573.9962768554688000,4.0513057708740230,55.8577804565429700,54,98,100,78,81,15615,0,0,0,0,2147122861,2147777334,2147571492,2147568676,2819,2,13,18546
1370174381,5811,1004.5300292968750000,39.2848091125488300,574.1389770507812000,4.0468668937683105,55.7648811340332000,56,98,100,77,80,15609,0,0,0,0,2147125467,2147775954,2147575451,2147567616,409,2,13,8215
1370177981,5809,1002.2299804687500000,39.1353683471679700,574.1832275390625000,4.0454921722412110,55.7937011718750000,54,99,99,78,81,15612,0,0,0,0,2147124809,2147773650,2147572315,2147569444,592,3,13,24893
1370181581,5807,996.0300292968750000,38.4506797790527340,574.4436035156250000,4.0373902320861820,55.8986091613769500,56,99,99,77,81,15610,0,0,0,0,2147121124,2147774674,2147573760,2147566281,110,2,13,12777
1370185181,5810,1001.1199951171875000,35.0058097839355500,574.9282836914062000,4.0223059654235840,56.4283905029296900,56,97,99,78,81,15614,0,0,0,0,2147124178,2147769691,2147567350,2147566765,334,2,13,28100
1370188781,5811,1001.5900268554688000,39.3032493591308600,574.6400146484375000,4.0312809944152830,55.7669410705566400,54,98,98,77,80,15614,0,0,0,0,2147123995,2147764498,2147571200,2147568694,3537,2,13,50019
1370192381,5811,1004.1699829101562000,39.1622314453125000,574.3637695312500000,4.0398712158203125,55.7867507934570300,55,98,99,78,81,15613,0,0,0,0,2147123529,2147771035,2147568173,2147567597,3420,2,13,59294
1370195981,5810,1009.7000122070312000,39.5143394470214840,574.0275878906250000,4.0503330230712890,55.7316589355468750,54,96,100,78,80,15611,0,0,0,0,2147121344,2147765778,2147570834,2147566848,281,2,13,16878
1370199581,5812,1004.0999755859375000,39.2520599365234400,574.8195190429688000,4.0256938934326170,55.7808189392089840,55,98,100,77,81,15612,0,0,0,0,2147121051,2147766537,2147571291,2147568173,3413,3,13,22520
1370203181,5810,1010.2000122070312000,41.0887718200683600,574.7230224609375000,4.0286979675292970,55.5084190368652340,55,98,99,78,81,15611,0,0,0,0,2147122176,2147770029,2147569737,2147568073,3358,2,13,57406
1370206781,5808,1008.1099853515625000,39.4546890258789060,574.6140747070312000,4.0320839881896970,55.7490501403808600,54,97,100,77,81,15611,0,0,0,0,2147123337,2147771812,2147569618,2147568091,3474,2,13,38837
1370210381,5810,1005.4799804687500000,41.5527610778808600,575.5297241210938000,4.0035920143127440,55.4492492675781250,54,97,99,82,81,15613,0,0,0,0,2147124992,2147766006,2147572525,2147566738,3010,2,13,31116
1370213981,5811,1002.5200195312500000,41.0433807373046900,575.6920776367188000,3.9985389709472656,55.5214309692382800,55,100,99,77,81,15609,0,0,0,0,2147126765,2147773376,2147571648,2147566180,3165,3,13,7094
1370217581,5810,1000.0300292968750000,40.7217788696289060,576.4708862304688000,3.9742970466613770,55.5753211975097660,55,99,100,78,81,15609,0,0,0,0,2147124059,2147772992,2147573156,2147567104,193,3,13,42403
1370221181,5812,1002.7999877929688000,42.0325202941894500,575.9509887695312000,3.9904789924621580,55.3823509216308600,55,98,101,77,81,15607,0,0,0,0,2147124315,2147767872,2147571428,2147569179,3306,2,13,25437
1370224781,5811,1004.8599853515625000,40.7971382141113300,576.0200195312500000,3.9883310794830322,55.5641288757324200,55,96,100,78,82,15604,0,0,0,0,2147124845,2147770761,2147572233,2147567725,63,2,13,6734
1370228381,5809,1015.3300170898438000,43.2303581237793000,576.0725708007812000,3.9866940975189210,55.2092895507812500,55,98,100,79,79,15606,0,0,0,0,2147125714,2147764452,2147572827,2147568612,3581,3,13,21407
1370231981,5812,1016.1599731445312000,42.1744003295898440,574.8833007812500000,4.0237078666687010,55.3498115539550800,55,98,100,77,81,15607,0,0,0,0,2147125037,2147767387,2147572178,2147565696,9,2,13,34838
1370235581,5810,1020.8200073242188000,40.5415916442871100,573.6683959960938000,4.0615057945251465,55.5741004943847660,54,99,100,78,81,15601,0,0,0,0,2147125010,2147770614,2147572946,2147565997,183,2,13,31910
1370239181,5811,1013.7000122070312000,38.9438400268554700,573.9326782226562000,4.0532860755920410,55.8150482177734400,55,101,100,78,81,15607,0,0,0,0,2147122852,2147768841,2147574153,2147567387,3451,3,13,6496
1370242781,5808,1020.2199707031250000,40.5556793212890600,573.6079711914062000,4.0633831024169920,55.5728492736816400,54,98,100,78,81,15602,0,0,0,0,2147125915,2147769042,2147568758,2147569270,112,2,13,63752
1370246381,5810,1015.3699951171875000,39.2912216186523440,573.7144165039062000,4.0600762367248535,55.7629814147949200,54,97,99,77,80,15605,0,0,0,0,2147127561,2147773430,2147570432,2147565330,3214,2,13,29790
1370249981,5809,1010.4000244140625000,37.4817886352539060,574.7933959960938000,4.0265049934387210,56.0494194030761700,54,99,99,78,81,15601,0,0,0,0,2147124205,2147769097,2147568402,2147567149,338,2,13,44373
1370253581,5811,1012.8599853515625000,30.7193794250488280,574.5070800781250000,4.0354161262512210,57.1107902526855500,54,98,101,78,80,15594,0,0,0,0,2147124736,2147770532,2147571894,2147565750,3457,2,13,2476
1370257181,5806,1016.1400146484375000,41.8063201904296900,575.0136718750000000,4.0196509361267090,55.4037017822265600,55,100,101,78,80,15604,0,0,0,0,2147126006,2147767250,2147573248,2147568292,522,3,13,2306
1370260781,5810,1011.1500244140625000,39.9205284118652340,574.8167724609375000,4.0257759094238280,55.6801795959472660,54,100,98,77,81,15602,0,0,0,0,2147122432,2147767826,2147572644,2147563181,433,2,13,43036
1370264381,5812,1010.3200073242188000,37.8822402954101560,575.5864868164062000,4.0018248558044430,55.9920310974121100,54,100,100,77,81,15605,0,0,0,0,2147121289,2147774409,2147569901,2147563291,77,3,13,51552
1370267981,5809,1017.0000000000000000,40.3490295410156250,575.2630004882812000,4.0118918418884280,55.6184806823730500,54,98,98,78,82,15604,0,0,0,0,2147123876,2147774509,2147573833,2147564525,378,2,13,50098
1370271581,5811,1013.4400024414062000,36.9050292968750000,575.0156860351562000,4.0195870399475100,56.1369400024414060,54,97,99,77,82,15599,0,0,0,0,2147126281,2147774637,2147571346,2147566747,3471,2,13,1943
1370275181,5809,1018.3599853515625000,38.0708885192871100,574.8980712890625000,4.0232467651367190,55.9619407653808600,54,97,98,78,81,15603,0,0,0,0,2147124882,2147772973,2147572077,2147565942,3568,2,13,17137
1370278781,5810,1016.8300170898438000,37.2895812988281250,574.4821166992188000,4.0361938476562500,56.0713691711425800,55,117,100,78,81,15602,0,0,0,0,2147122907,2147769728,2147567049,2147566793,3558,2,13,60484
1370282381,5808,1011.2899780273438000,36.1226692199707000,574.7056274414062000,4.0292401313781740,56.2511291503906250,55,100,99,78,82,15601,0,0,0,0,2147125065,2147771355,2147571474,2147566162,248,3,13,25157
1370285981,5810,1017.9199829101562000,39.6870307922363300,574.2020263671875000,4.0449051856994630,55.7087898254394500,55,98,100,78,81,15599,0,0,0,0,2147124297,2147771958,2147570112,2147563163,259,2,13,12935
1370289581,5810,1008.9799804687500000,40.6625595092773440,574.2686767578125000,4.0428299903869630,55.5654792785644500,53,97,101,78,82,15600,0,0,0,0,2147124233,2147769389,2147569673,2147569472,758,2,13,23001
1370290556,5811,1014.1900024414062000,37.6785087585449200,574.7119750976562000,4.0290369987487790,56.0137786865234400,55,98,99,79,80,15593,0,0,0,0,2147123922,2147770742,2147572480,2147564617,416,2,13,27639
